User: anonymous   Login
Location: Te Maire Creek
(41.1333°S, 175.9167°E)
Time: 10:59:18
(UTC+00:00)
Language:

Cosmos 2322 Rocket - Orbit

View from above orbital plane
View from above orbital plane
View from above satellite
View from above satellite

Ground track
Ground track

The orbit data is extracted from the following two-line orbital elements,

1 23705U 95058B   24203.80805560  .00000379  00000-0  21868-3 0  9994
2 23705  71.0229 351.1812 0014295 302.9713  57.0036 14.15352214483539
Epoch (UTC): 21 July 2024 19:23:36
Eccentricity: 0.0014295
inclination: 71.0229°
perigee height: 831 km
apogee height: 851 km
right ascension of ascending node: 351.1812°
argument of perigee: 302.9713°
revolutions per day: 14.15352214
mean anomaly at epoch: 57.0036°
orbit number at epoch: 48353

The dashed part of the orbit path shows where the satellite is in the earth's shadow,  

DLR